"Pseudo-MPEC" for P115ZDp

Created 2020 Sep 19 4:07:22 UT using Find_Orb

Click here for an explanation of pseudo-MPECs

 
 Astrometry: 
     P115ZDp  C2020 09 14d8EKD4!-wxPKB/xZ!34DcAstrometrygB'-VE]t8(Fr4sDvpvLurF51
     P115ZDp  C2020 09 145:qJo^^:H%6)gF(JA@,redacted;Al2/e1+6aWeZG%+qOi/Ck5YtF51
     P115ZDp  C2020 09 14V%#wfAjRclickQ/=\y%ne9oDDfsgu3dO-@UdU@Q`M(IjIIfh[f:GF51
     P115ZDp  C2020 09 14`(wV;;,6;hereAjJ71!forw8)\#,hkHJXcKrEH(:explanation4F51
     P115ZDp ^C2020 09 15.35344800 12 50.673-22 49 07.71   ~9GNM 22.45GVNEOCP568
     P115ZDp ^C2020 09 15.35439700 12 50.469-22 49 12.24   ~9GNM 22.33GVNEOCP568
     P115ZDp ^C2020 09 17.37393100 06 13.541-25 19 08.31   ~9HHq 21.64GVNEOCP568
     P115ZDp ^C2020 09 17.37510800 06 13.279-25 19 13.68   ~9HHq 21.72GVNEOCP568
     P115ZDp ^C2020 09 17.37628500 06 13.044-25 19 18.42   ~9HHq 21.71GVNEOCP568

Station data:
(568) Mauna Kea  (N19.826116 W155.472200)  US/Hawaii.
(F51) Pan-STARRS 1, Haleakala  (N20.707235 W156.255910)  US/Hawaii.
   Observers N. Primak, A. Schultz, S. Watters, J. Thiel, T. Goggia. Measurer
   PS1 Science Consortium. 1.8-m Ritchey-Chrétien + CCD.

Orbital elements:  P115ZDp
   Perihelion 2020 May 19.214170 +/- 0.381 TT =  5:08:24 (JD 2458988.714170)
Epoch 2020 Sep 17.0 TT = JDT 2459109.5   Earth MOID: 0.0959   Ve: 0.0436
M 123.96204844 +/- 0.6              (J2000 ecliptic)          AutoNEOCP
n   1.02629628 +/- 0.00242          Peri.   42.94259 +/- 0.12
a   0.97339148 +/- 0.00153          Node   162.42515 +/- 0.08
e   0.3382523 +/- 0.00418           Incl.   20.60072 +/- 0.38
P   0.96/350.77d           H 24.0   G  0.15   U  8.7  
q 0.64413948 +/- 0.00306    Q 1.30264349 +/- 0.0061
From 9 observations 2020 Sept. 14-17; mean residual 0".09
Residuals in arcseconds: 
200914 F51  .07-  .03+    200914 F51  .09+  .10+    200917 568  .11+  .17+    
200914 F51  .02-  .03-    200915 568  .02+  .01-    200917 568  .12-  .21-    
200914 F51  .02-  .09-    200915 568  .00   .01-    200917 568  .00   .04+    

Ephemerides (geocentric):
Date (UTC) HH   RA              Dec         delta   r     elong  mag " sig PA
---- -- -- --  -------------   -----------  ------ ------ -----  --- ---- ---
2020 09 19 04  00 00 34.395   -27 17 21.82  .23667 1.2216 153.9 22.3 1.55 159
2020 09 19 05  00 00 26.713   -27 19 57.90  .23690 1.2217 153.9 22.4 1.59 159
2020 09 19 06  00 00 19.040   -27 22 33.56  .23713 1.2218 153.8 22.4 1.62 160
2020 09 19 07  00 00 11.375   -27 25 08.80  .23737 1.2220 153.8 22.4 1.66 160
2020 09 19 08  00 00 03.718   -27 27 43.62  .23760 1.2221 153.7 22.4 1.69 160
2020 09 19 09  23 59 56.070   -27 30 18.03  .23783 1.2222 153.7 22.4 1.73 160
2020 09 19 10  23 59 48.430   -27 32 52.02  .23807 1.2224 153.6 22.4 1.76 161
2020 09 19 11  23 59 40.798   -27 35 25.60  .23830 1.2225 153.6 22.4 1.80 161
2020 09 19 12  23 59 33.175   -27 37 58.76  .23853 1.2226 153.5 22.4 1.83 161
2020 09 19 13  23 59 25.560   -27 40 31.50  .23877 1.2227 153.5 22.4 1.87 161
2020 09 19 14  23 59 17.953   -27 43 03.83  .23900 1.2229 153.4 22.4 1.91 161
2020 09 19 15  23 59 10.355   -27 45 35.75  .23924 1.2230 153.4 22.4 1.95 162
2020 09 19 16  23 59 02.765   -27 48 07.26  .23947 1.2231 153.3 22.4 1.99 162
2020 09 19 17  23 58 55.184   -27 50 38.35  .23971 1.2232 153.3 22.4 2.02 162
2020 09 19 18  23 58 47.611   -27 53 09.03  .23994 1.2234 153.2 22.4 2.06 162
2020 09 19 19  23 58 40.047   -27 55 39.30  .24018 1.2235 153.2 22.4 2.10 163
2020 09 19 20  23 58 32.491   -27 58 09.17  .24042 1.2236 153.1 22.4 2.14 163
2020 09 19 21  23 58 24.944   -28 00 38.62  .24065 1.2238 153.1 22.4 2.18 163
2020 09 19 22  23 58 17.406   -28 03 07.66  .24089 1.2239 153.0 22.4 2.23 163
2020 09 19 23  23 58 09.876   -28 05 36.29  .24113 1.2240 153.0 22.4 2.27 163
2020 09 20 00  23 58 02.354   -28 08 04.51  .24136 1.2241 152.9 22.4 2.31 163
2020 09 20 01  23 57 54.841   -28 10 32.33  .24160 1.2243 152.8 22.4 2.35 164
2020 09 20 02  23 57 47.337   -28 12 59.74  .24184 1.2244 152.8 22.4 2.39 164
2020 09 20 03  23 57 39.842   -28 15 26.75  .24208 1.2245 152.7 22.4 2.44 164
2020 09 20 04  23 57 32.355   -28 17 53.35  .24232 1.2246 152.7 22.4 2.48 164
2020 09 20 05  23 57 24.877   -28 20 19.54  .24256 1.2248 152.6 22.4 2.53 164
2020 09 20 06  23 57 17.408   -28 22 45.33  .24280 1.2249 152.6 22.4 2.57 165
2020 09 20 07  23 57 09.947   -28 25 10.71  .24304 1.2250 152.5 22.4 2.62 165
2020 09 20 08  23 57 02.495   -28 27 35.70  .24328 1.2251 152.5 22.4 2.66 165
2020 09 20 09  23 56 55.052   -28 30 00.28  .24352 1.2253 152.4 22.5 2.71 165
2020 09 20 10  23 56 47.618   -28 32 24.45  .24376 1.2254 152.4 22.5 2.75 165
2020 09 20 11  23 56 40.193   -28 34 48.23  .24400 1.2255 152.3 22.5 2.80 166
2020 09 20 12  23 56 32.776   -28 37 11.61  .24424 1.2256 152.3 22.5 2.85 166
2020 09 20 13  23 56 25.369   -28 39 34.58  .24448 1.2258 152.2 22.5 2.90 166
2020 09 20 14  23 56 17.970   -28 41 57.16  .24473 1.2259 152.2 22.5 2.94 166
2020 09 20 15  23 56 10.580   -28 44 19.34  .24497 1.2260 152.1 22.5 2.99 166
2020 09 20 16  23 56 03.199   -28 46 41.12  .24521 1.2261 152.1 22.5 3.04 166
2020 09 20 17  23 55 55.827   -28 49 02.50  .24545 1.2263 152.0 22.5 3.09 167
2020 09 20 18  23 55 48.464   -28 51 23.48  .24570 1.2264 151.9 22.5 3.14 167
2020 09 20 19  23 55 41.110   -28 53 44.07  .24594 1.2265 151.9 22.5 3.19 167
2020 09 20 20  23 55 33.765   -28 56 04.27  .24619 1.2266 151.8 22.5 3.24 167
2020 09 20 21  23 55 26.429   -28 58 24.06  .24643 1.2268 151.8 22.5 3.30 167
2020 09 20 22  23 55 19.102   -29 00 43.47  .24667 1.2269 151.7 22.5 3.35 167
2020 09 20 23  23 55 11.783   -29 03 02.48  .24692 1.2270 151.7 22.5 3.40 167
2020 09 21 00  23 55 04.475   -29 05 21.10  .24716 1.2271 151.6 22.5 3.45 168
2020 09 21 01  23 54 57.175   -29 07 39.32  .24741 1.2273 151.6 22.5 3.51 168
2020 09 21 02  23 54 49.884   -29 09 57.16  .24766 1.2274 151.5 22.5 3.56 168
2020 09 21 03  23 54 42.602   -29 12 14.60  .24790 1.2275 151.5 22.5 3.61 168